sat.trackr.live / text

‹ back to catalog

STARLINK-3300

NORAD 50841 · 2022-001AQ

PAYLOAD ACTIVE UNKNOWN

§ Identity

Operator
Country
US
Launch date
2022-01-06
Launch site
AFETR
Launch vehicle
Mass (kg)
RCS (m²)

Purposes: comms

External: N2YO · Heavens-Above · Gunter

§ Orbital elements

Epoch: 2026-09-19T23:23:44.369376Z

Period
93.90 min
Inclination
53.1610°
Eccentricity
0.0000911
Mean motion
15.33553064 rev/d
Perigee alt
464.6 km
Apogee alt
465.8 km
Semi-major
6,843.4 km
B*
2.4042e-5
RAAN
12.2787°
Arg perigee
80.4403°
Mean anomaly
279.6702°
Rev number
25,979

§ Raw data

STARLINK-33001 50841U 22001AQ  26262.97481909  .00000418  00000+0  24042-4 0  99962 50841  53.1610  12.2787 0000911  80.4403 279.6702 15.33553064259793

JSON: /api/v1/satellites/50841 · /tle

For live sub-satellite position, see the globe view (requires WebGL).

§ Visibility from observer

Set your observer location to see the next 7 days of passes ≥ 10°. The values pass through the URL so the page stays shareable.

No JS? Fill the form by hand. The geolocation button needs JavaScript.